sat.trackr.live / text

‹ back to catalog

STARLINK-4209

NORAD 52855 · 2022-062AB

PAYLOAD ACTIVE UNKNOWN

§ Identity

Operator
Country
US
Launch date
2022-06-17
Launch site
AFETR
Launch vehicle
Mass (kg)
RCS (m²)

Purposes: comms

External: N2YO · Heavens-Above · Gunter

§ Orbital elements

Epoch: 2026-05-24T23:55:43.004928Z

Period
95.44 min
Inclination
53.2135°
Eccentricity
0.0001896
Mean motion
15.08843735 rev/d
Perigee alt
538.4 km
Apogee alt
541.0 km
Semi-major
6,917.9 km
B*
-5.0447e-5
RAAN
41.5617°
Arg perigee
92.1003°
Mean anomaly
268.0207°
Rev number
21,744

§ Raw data

STARLINK-42091 52855U 22062AB  26144.99702552 -.00001091  00000+0 -50447-4 0  99992 52855  53.2135  41.5617 0001896  92.1003 268.0207 15.08843735217446

JSON: /api/v1/satellites/52855 · /tle

For live sub-satellite position, see the globe view (requires WebGL).

§ Visibility from observer

Set your observer location to see the next 7 days of passes ≥ 10°. The values pass through the URL so the page stays shareable.

No JS? Fill the form by hand. The geolocation button needs JavaScript.